Date String (YYYY-MM-DD hh:mm:ss) UTC,Instrument flags,Ambient pressure (hPa),Sample flow (lpm),Bypass flow (lpm),Sample temperature (°C),Ambient temperature (°C),ASC tube jacket temperature (°C),LED temperature (°C),Box temperature (°C),Sample RH (%),Span deviation,Mass concentration (μg/m³),Mass concentration (μg/m³),Mass concentration (μg/m³)
DateTimeUTC,F1_M11,P_M11,Q1_M11,Q2_M11,T1_M11,T2_M11,T3_M11,T4_M11,T5_M11,U1_M11,ZSPAN_M11,X0_M11,X2_M11,X1_M11
2021-09-01 18:00:00,,0823.4,5.00,0.00,29.7,28.6,00.0,38.7,31.6,21.0,0001.2,0039.56,0025.17,0023.32
2021-09-01 18:01:00,,0823.4,4.99,0.00,29.7,28.8,00.0,38.7,31.6,21.0,0001.2,0038.85,0024.97,0023.21
2021-09-01 18:02:00,,0823.4,5.00,0.00,29.7,27.7,00.0,38.7,31.3,21.3,0001.2,0037.88,0024.83,0023.12
2021-09-01 18:03:00,,0823.4,5.00,0.00,29.6,26.2,00.0,38.7,30.9,21.8,0001.0,0036.88,0024.75,0023.04
2021-09-01 18:04:00,,0823.3,5.01,0.00,29.5,26.3,00.0,38.7,30.9,22.4,0000.7,0036.77,0024.68,0022.97
2021-09-01 18:05:00,,0823.3,5.00,0.00,29.5,26.7,00.0,38.6,31.0,22.8,0000.7,0036.58,0024.63,0022.94
2021-09-01 18:06:00,,0823.2,4.99,0.00,29.4,27.2,00.0,38.6,31.1,23.1,0000.5,0036.04,0024.59,0022.89
2021-09-01 18:07:00,,0823.2,5.00,0.00,29.5,27.6,00.0,38.6,31.2,23.0,0000.7,0036.15,0024.60,0022.87
2021-09-01 18:08:00,,0823.2,4.99,0.00,29.5,28.0,00.0,38.6,31.3,22.9,0000.7,0036.05,0024.63,0022.85
2021-09-01 18:09:00,,0823.2,5.01,0.00,29.6,28.2,00.0,38.6,31.4,23.4,0001.0,0038.10,0024.71,0022.88
2021-09-01 18:10:00,,0823.2,5.00,0.00,29.6,28.5,00.0,38.6,31.5,22.9,0001.2,0039.49,0024.79,0022.97
2021-09-01 18:11:00,,0823.1,4.99,0.00,29.7,28.7,00.0,38.6,31.6,22.4,0001.3,0038.56,0024.86,0023.05
2021-09-01 18:12:00,,0823.1,4.99,0.00,29.7,28.6,00.0,38.7,31.5,22.7,0001.8,0038.15,0024.96,0023.10
2021-09-01 18:13:00,,0823.1,5.00,0.00,29.6,27.0,00.0,38.7,31.1,22.9,0001.7,0038.51,0024.93,0023.03
2021-09-01 18:14:00,,0823.1,5.00,0.00,29.5,26.1,00.0,38.6,30.9,22.9,0001.5,0038.52,0024.77,0022.92
2021-09-01 18:15:00,,0823.1,5.01,0.00,29.4,26.4,00.0,38.6,30.9,22.9,0001.4,0038.53,0024.70,0022.85
2021-09-01 18:16:00,,0823.1,5.00,0.00,29.4,26.9,00.0,38.6,31.0,23.2,0001.4,0039.64,0024.60,0022.72
2021-09-01 18:17:00,,0823.0,4.99,0.00,29.4,27.3,00.0,38.6,31.1,23.3,0001.5,0040.05,0024.50,0022.60
2021-09-01 18:18:00,,0823.1,5.00,0.00,29.4,27.7,00.0,38.5,31.2,23.7,0001.5,0039.48,0024.32,0022.43
2021-09-01 18:19:00,,0823.1,5.01,0.00,29.5,28.0,00.0,38.5,31.3,23.8,0001.6,0039.68,0024.17,0022.30
2021-09-01 18:20:00,,0823.1,4.98,0.00,29.5,28.3,00.0,38.6,31.4,23.7,0001.8,0037.78,0024.09,0022.22
2021-09-01 18:21:00,,0823.0,5.01,0.00,29.6,28.5,00.0,38.6,31.5,23.5,0001.6,0037.19,0024.00,0022.12
2021-09-01 18:22:00,,0823.1,5.00,0.00,29.6,28.7,00.0,38.6,31.5,23.4,0001.5,0037.83,0023.96,0022.04
2021-09-01 18:23:00,,0823.0,4.99,0.00,29.7,28.7,00.0,38.6,31.6,23.4,0001.4,0039.26,0023.83,0021.94
2021-09-01 18:24:00,,0823.1,5.00,0.00,29.7,27.4,00.0,38.6,31.2,23.6,0001.3,0039.18,0023.77,0021.93
2021-09-01 18:25:00,,0823.1,5.00,0.00,29.5,26.1,00.0,38.6,30.9,23.7,0001.5,0040.72,0023.90,0021.96
2021-09-01 18:26:00,,0823.0,5.00,0.00,29.4,26.3,00.0,38.6,30.9,23.7,0001.5,0040.90,0023.86,0021.89
2021-09-01 18:27:00,,0823.1,5.00,0.00,29.4,26.8,00.0,38.6,31.0,23.9,0001.5,0040.94,0023.84,0021.83
2021-09-01 18:28:00,,0823.0,5.00,0.00,29.4,27.2,00.0,38.5,31.1,23.8,0001.4,0040.31,0023.81,0021.81
2021-09-01 18:29:00,,0823.1,4.98,0.00,29.4,27.6,00.0,38.5,31.2,23.5,0001.3,0040.20,0023.81,0021.78
2021-09-01 18:30:00,,0823.0,5.01,0.00,29.5,28.0,00.0,38.5,31.3,23.7,0001.4,0039.68,0023.74,0021.73
2021-09-01 18:31:00,,0823.1,4.99,0.00,29.5,28.3,00.0,38.5,31.4,23.5,0001.5,0040.26,0023.63,0021.67
2021-09-01 18:32:00,,0823.1,5.01,0.00,29.6,28.5,00.0,38.5,31.5,23.4,0001.6,0039.56,0023.47,0021.57
2021-09-01 18:33:00,,0823.0,4.99,0.00,29.6,28.7,00.0,38.6,31.5,23.3,0001.8,0038.65,0023.32,0021.48
2021-09-01 18:34:00,,0823.1,5.00,0.00,29.7,28.8,00.0,38.6,31.6,23.4,0001.8,0037.59,0023.26,0021.44
2021-09-01 18:35:00,,0823.0,5.01,0.00,29.7,27.7,00.0,38.6,31.3,22.5,0002.1,0038.64,0023.18,0021.35
2021-09-01 18:36:00,,0823.0,5.00,0.00,29.5,26.1,00.0,38.6,30.8,22.9,0002.1,0037.54,0023.00,0021.25
2021-09-01 18:37:00,,0823.0,5.01,0.00,29.4,26.1,00.0,38.6,30.8,23.2,0002.2,0037.55,0022.93,0021.19
2021-09-01 18:38:00,,0823.0,4.99,0.00,29.4,26.6,00.0,38.6,30.9,23.4,0002.1,0037.07,0022.78,0021.11
2021-09-01 18:39:00,,0822.9,5.00,0.00,29.4,27.0,00.0,38.5,31.0,23.6,0002.2,0037.09,0022.63,0021.03
2021-09-01 18:40:00,,0822.9,4.99,0.00,29.4,27.4,00.0,38.5,31.1,23.5,0002.1,0037.14,0022.47,0020.94
2021-09-01 18:41:00,,0822.9,5.01,0.00,29.4,27.8,00.0,38.5,31.2,23.2,0001.9,0037.30,0022.32,0020.86
2021-09-01 18:42:00,,0822.9,4.98,0.00,29.5,28.1,00.0,38.5,31.3,23.3,0001.9,0036.63,0022.15,0020.73
2021-09-01 18:43:00,,0823.0,5.01,0.00,29.5,28.4,00.0,38.5,31.4,22.9,0001.9,0036.73,0022.13,0020.67
2021-09-01 18:44:00,,0823.0,5.00,0.00,29.6,28.6,00.0,38.5,31.5,22.4,0001.8,0036.48,0022.09,0020.63
2021-09-01 18:45:00,,0822.9,5.00,0.00,29.6,28.6,00.0,38.6,31.5,22.9,0002.1,0036.12,0022.04,0020.58
2021-09-01 18:46:00,,0822.8,5.01,0.00,29.6,27.0,00.0,38.6,31.1,23.0,0002.0,0035.21,0021.97,0020.55
2021-09-01 18:47:00,,0822.8,4.98,0.00,29.4,25.9,00.0,38.6,30.7,22.9,0001.9,0034.30,0021.95,0020.54
2021-09-01 18:48:00,,0822.8,5.01,0.00,29.3,26.2,00.0,38.5,30.8,22.6,0002.0,0034.17,0021.92,0020.54
2021-09-01 18:49:00,,0822.8,5.00,0.00,29.3,26.6,00.0,38.5,30.9,23.0,0002.3,0033.66,0021.94,0020.57
2021-09-01 18:50:00,,0822.7,5.00,0.00,29.3,27.1,00.0,38.5,31.0,22.8,0002.3,0033.48,0021.94,0020.57
2021-09-01 18:51:00,,0822.7,5.01,0.00,29.3,27.5,00.0,38.5,31.1,22.7,0002.3,0036.01,0021.97,0020.54
2021-09-01 18:52:00,,0822.7,4.99,0.00,29.4,27.9,00.0,38.5,31.2,21.6,0002.4,0036.05,0022.00,0020.53
2021-09-01 18:53:00,,0822.6,5.00,0.00,29.4,28.2,00.0,38.5,31.3,22.3,0002.1,0035.99,0022.00,0020.54
2021-09-01 18:54:00,,0822.6,5.02,0.00,29.5,28.4,00.0,38.5,31.4,22.8,0001.8,0035.69,0022.00,0020.55
2021-09-01 18:55:00,,0822.6,4.99,0.00,29.6,28.6,00.0,38.5,31.5,22.7,0001.5,0036.46,0022.00,0020.55
2021-09-01 18:56:00,,0822.7,5.00,0.00,29.6,28.7,00.0,38.5,31.5,21.9,0001.1,0036.07,0021.93,0020.51
2021-09-01 18:57:00,,0822.6,5.01,0.00,29.6,27.4,00.0,38.5,31.2,21.7,0001.1,0036.01,0021.98,0020.53
2021-09-01 18:58:00,,0822.6,5.00,0.00,29.4,26.0,00.0,38.5,30.8,22.1,0001.1,0036.67,0022.01,0020.54
2021-09-01 18:59:00,,0822.6,5.01,0.00,29.3,26.1,00.0,38.5,30.8,22.2,0001.0,0037.42,0022.03,0020.52
